Powrót do katalogu

SL-8 DEB

AktywnyPO
NORAD 14568·DEBRIS·🇷🇺 Russia

Wystrzelony Jan 12, 1983 z Plesetsk Cosmodrome

Loading…

Następne Przeloty (najbliższe 24 godziny)

TLE

ŚwieżeSource: Space-Track

Epoka: Sep 13, 2026, 21:47 UTC

1 14568U 83001C   26256.90766142  .00004625  00000-0  12440-2 0  9992
2 14568  82.8869  67.4697 0018923 192.4782 167.5948 14.47779926310530

Śledź SL-8 DEB w czasie rzeczywistym z AllMySat

Download on the App Store